Stündliche Wetter Abaturovo

Heute, 23 Juni, Mittwoch

Zeit Temperatur Niederschläge Wind Luftdruck Luftfeuchtigkeit
00:00 +23°C° 0 mm 1 m/S 753 mmHg 75%
01:00 +23°C° 0 mm 1 m/S 753 mmHg 77%
02:00 +22°C° 0 mm 1 m/S 753 mmHg 80%
03:00 +23°C° 0 mm 1 m/S 754 mmHg 79%
04:00 +23°C° 0 mm 1 m/S 754 mmHg 78%
05:00 +24°C° 0 mm 1 m/S 754 mmHg 77%
06:00 +26°C° 0 mm 1 m/S 754 mmHg 69%
07:00 +28°C° 0 mm 1 m/S 754 mmHg 62%
08:00 +30°C° 0 mm 1 m/S 754 mmHg 54%
09:00 +32°C° 0 mm 1 m/S 754 mmHg 49%
10:00 +33°C° 0 mm 1 m/S 754 mmHg 44%
11:00 +34°C° 0 mm 1 m/S 754 mmHg 39%
12:00 +36°C° 0 mm 2 m/S 754 mmHg 37%
13:00 +36°C° 0 mm 2 m/S 754 mmHg 35%
14:00 +37°C° 0 mm 2 m/S 753 mmHg 33%
15:00 +36°C° 0 mm 2 m/S 753 mmHg 36%
16:00 +36°C° 0 mm 2 m/S 753 mmHg 39%
17:00 +35°C° 0 mm 2 m/S 753 mmHg 43%
18:00 +32°C° 0 mm 2 m/S 753 mmHg 51%
19:00 +30°C° 0 mm 2 m/S 753 mmHg 59%
20:00 +27°C° 0 mm 1 m/S 753 mmHg 67%
21:00 +26°C° 0 mm 1 m/S 753 mmHg 68%
22:00 +25°C° 0 mm 1 m/S 753 mmHg 68%
23:00 +24°C° 0 mm 1 m/S 753 mmHg 69%

Morgen, 24 Juni, Donnerstag

Zeit Temperatur Niederschläge Wind Luftdruck Luftfeuchtigkeit
00:00 +24°C° 0 mm 1 m/S 753 mmHg 70%
01:00 +23°C° 0 mm 1 m/S 753 mmHg 72%
02:00 +23°C° 0 mm 1 m/S 753 mmHg 73%
03:00 +23°C° 0 mm 1 m/S 753 mmHg 74%
04:00 +24°C° 0 mm 1 m/S 753 mmHg 75%
05:00 +24°C° 0 mm 1 m/S 753 mmHg 75%
06:00 +26°C° 0 mm 1 m/S 753 mmHg 68%
07:00 +28°C° 0 mm 1 m/S 753 mmHg 60%
08:00 +30°C° 0 mm 2 m/S 753 mmHg 52%
09:00 +32°C° 0 mm 2 m/S 753 mmHg 47%
10:00 +34°C° 0 mm 2 m/S 753 mmHg 43%
11:00 +35°C° 0 mm 2 m/S 753 mmHg 38%
12:00 +36°C° 0 mm 2 m/S 753 mmHg 36%
13:00 +36°C° 0 mm 2 m/S 752 mmHg 33%
14:00 +37°C° 0 mm 3 m/S 752 mmHg 31%
15:00 +36°C° 0 mm 2 m/S 752 mmHg 34%
16:00 +35°C° 0 mm 2 m/S 751 mmHg 37%
17:00 +35°C° 0 mm 2 m/S 751 mmHg 41%
18:00 +31°C° 0 mm 2 m/S 751 mmHg 49%
19:00 +29°C° 0 mm 2 m/S 751 mmHg 57%
20:00 +26°C° 0 mm 2 m/S 751 mmHg 65%
21:00 +25°C° 0 mm 1 m/S 751 mmHg 69%
22:00 +23°C° 0 mm 1 m/S 751 mmHg 74%
23:00 +22°C° 0 mm 1 m/S 751 mmHg 78%

übermorgen, 25 Juni, Freitag

Zeit Temperatur Niederschläge Wind Luftdruck Luftfeuchtigkeit
00:00 +21°C° 0 mm 1 m/S 752 mmHg 80%
01:00 +21°C° 0 mm 1 m/S 752 mmHg 82%
02:00 +20°C° 0 mm 1 m/S 752 mmHg 83%
03:00 +21°C° 0 mm 1 m/S 752 mmHg 81%
04:00 +21°C° 0 mm 1 m/S 751 mmHg 79%
05:00 +22°C° 0 mm 1 m/S 751 mmHg 78%
06:00 +24°C° 0 mm 1 m/S 751 mmHg 71%
07:00 +26°C° 0 mm 1 m/S 751 mmHg 65%
08:00 +28°C° 0 mm 1 m/S 751 mmHg 58%
09:00 +30°C° 0 mm 1 m/S 751 mmHg 53%
10:00 +32°C° 0 mm 1 m/S 751 mmHg 48%
11:00 +34°C° 0 mm 1 m/S 751 mmHg 43%
12:00 +34°C° 0 mm 1 m/S 751 mmHg 40%
13:00 +35°C° 0 mm 1 m/S 750 mmHg 37%
14:00 +35°C° 0 mm 1 m/S 750 mmHg 34%
15:00 +35°C° 0.1 mm 2 m/S 750 mmHg 40%
16:00 +34°C° 0.1 mm 2 m/S 749 mmHg 45%
17:00 +33°C° 0.1 mm 3 m/S 748 mmHg 51%
18:00 +28°C° 3.8 mm 3 m/S 749 mmHg 66%
19:00 +25°C° 3.8 mm 4 m/S 750 mmHg 81%
20:00 +20°C° 3.8 mm 4 m/S 751 mmHg 96%
21:00 +20°C° 0.3 mm 3 m/S 750 mmHg 96%
22:00 +20°C° 0.3 mm 2 m/S 749 mmHg 95%
23:00 +20°C° 0.3 mm 2 m/S 749 mmHg 95%

26 Juni, Samstag

Zeit Temperatur Niederschläge Wind Luftdruck Luftfeuchtigkeit
00:00 +19°C° 0 mm 2 m/S 749 mmHg 96%
01:00 +20°C° 0 mm 1 m/S 749 mmHg 96%
02:00 +20°C° 0 mm 1 m/S 749 mmHg 96%
03:00 +20°C° 0 mm 1 m/S 749 mmHg 95%
04:00 +20°C° 0 mm 1 m/S 749 mmHg 93%
05:00 +21°C° 0 mm 1 m/S 749 mmHg 91%
06:00 +23°C° 0 mm 1 m/S 749 mmHg 82%
07:00 +25°C° 0 mm 1 m/S 749 mmHg 73%
08:00 +27°C° 0 mm 2 m/S 749 mmHg 64%
09:00 +28°C° 0 mm 2 m/S 749 mmHg 58%
10:00 +30°C° 0 mm 2 m/S 749 mmHg 52%
11:00 +31°C° 0 mm 2 m/S 749 mmHg 46%
12:00 +32°C° 0 mm 2 m/S 748 mmHg 44%
13:00 +34°C° 0 mm 2 m/S 748 mmHg 41%
14:00 +35°C° 0 mm 2 m/S 748 mmHg 38%
15:00 +34°C° 0 mm 2 m/S 748 mmHg 41%
16:00 +34°C° 0 mm 2 m/S 748 mmHg 44%
17:00 +34°C° 0 mm 2 m/S 748 mmHg 47%
18:00 +31°C° 0 mm 2 m/S 747 mmHg 55%
19:00 +29°C° 0 mm 1 m/S 747 mmHg 63%
20:00 +26°C° 0 mm 1 m/S 747 mmHg 71%
21:00 +25°C° 0.6 mm 1 m/S 748 mmHg 79%
22:00 +23°C° 0.6 mm 1 m/S 748 mmHg 87%
23:00 +20°C° 0.6 mm 2 m/S 748 mmHg 95%

27 Juni, Sonntag

Zeit Temperatur Niederschläge Wind Luftdruck Luftfeuchtigkeit
00:00 +21°C° 0.1 mm 1 m/S 748 mmHg 95%
01:00 +21°C° 0.1 mm 1 m/S 748 mmHg 94%
02:00 +20°C° 0.1 mm 1 m/S 748 mmHg 94%
03:00 +21°C° 0 mm 1 m/S 748 mmHg 93%
04:00 +22°C° 0 mm 1 m/S 748 mmHg 92%
05:00 +22°C° 0 mm 1 m/S 748 mmHg 92%
06:00 +24°C° 0 mm 1 m/S 748 mmHg 83%
07:00 +24°C° 0 mm 0 m/S 748 mmHg 75%
08:00 +26°C° 0 mm 0 m/S 748 mmHg 66%
09:00 +27°C° 0 mm 0 m/S 748 mmHg 60%
10:00 +31°C° 0 mm 1 m/S 748 mmHg 54%
11:00 +32°C° 0 mm 1 m/S 748 mmHg 49%
12:00 +33°C° 0 mm 1 m/S 748 mmHg 46%
13:00 +34°C° 0 mm 2 m/S 748 mmHg 43%
14:00 +35°C° 0 mm 2 m/S 748 mmHg 40%
15:00 +35°C° 0 mm 2 m/S 747 mmHg 43%
16:00 +34°C° 0 mm 2 m/S 747 mmHg 46%
17:00 +34°C° 0 mm 2 m/S 747 mmHg 49%
18:00 +30°C° 0 mm 2 m/S 747 mmHg 58%
19:00 +28°C° 0 mm 2 m/S 747 mmHg 66%
20:00 +25°C° 0 mm 3 m/S 747 mmHg 75%
21:00 +24°C° 0.2 mm 2 m/S 747 mmHg 78%
22:00 +23°C° 0.2 mm 2 m/S 747 mmHg 81%
23:00 +22°C° 0.2 mm 1 m/S 747 mmHg 84%

28 Juni, Montag

Zeit Temperatur Niederschläge Wind Luftdruck Luftfeuchtigkeit
00:00 +21°C° 0.6 mm 1 m/S 747 mmHg 87%
01:00 +21°C° 0.6 mm 1 m/S 747 mmHg 91%
02:00 +20°C° 0.6 mm 1 m/S 747 mmHg 95%
03:00 +21°C° 0 mm 1 m/S 747 mmHg 93%
04:00 +22°C° 0 mm 1 m/S 747 mmHg 91%
05:00 +20°C° 0 mm 0 m/S 747 mmHg 90%
06:00 +24°C° 0 mm 1 m/S 747 mmHg 81%
07:00 +26°C° 0 mm 1 m/S 748 mmHg 73%
08:00 +28°C° 0 mm 1 m/S 748 mmHg 65%
09:00 +29°C° 0 mm 1 m/S 748 mmHg 59%
10:00 +31°C° 0 mm 1 m/S 747 mmHg 53%
11:00 +32°C° 0 mm 1 m/S 747 mmHg 48%
12:00 +33°C° 0 mm 1 m/S 747 mmHg 46%
13:00 +33°C° 0 mm 1 m/S 747 mmHg 43%
14:00 +35°C° 0 mm 2 m/S 747 mmHg 41%
15:00 +35°C° 0 mm 2 m/S 746 mmHg 44%
16:00 +34°C° 0 mm 2 m/S 746 mmHg 47%
17:00 +34°C° 0 mm 2 m/S 745 mmHg 50%
18:00 +30°C° 1.8 mm 2 m/S 746 mmHg 65%
19:00 +26°C° 1.8 mm 2 m/S 746 mmHg 80%
20:00 +23°C° 1.8 mm 2 m/S 746 mmHg 95%
21:00 +23°C° 2 mm 2 m/S 746 mmHg 95%
22:00 +22°C° 2 mm 1 m/S 746 mmHg 96%
23:00 +22°C° 2 mm 1 m/S 746 mmHg 97%
Mehr zeigen

Wir brauchen deine Erlaubnis

Meteoprog und unser Service Anbieter werden persönliche Daten aufbewahren, so wie Cookies, Geräte Bezeichnung oder ähnliche Technologien von deinem Gerät und Prozess, so wie Persönliche Daten Inhalte und Werbungen, genauso wie social Media und den Verkehr zu analysieren.

  • Aufbewahrung und/oder Zugang zu deiner Geräte Informationen.

    Cookies, Geräte Bezeichnung oder andere Informationen, können aufbewahrt oder Zugang zu deinem Gerät erhalten, für den Grund, der oben angegeben wird.

  • Personalisierte Werbung und Inhalte, Messungen, Einblick in das Publikum und Produkt Entwicklung.

    Werbungen und Inhalte können personalisiert werden, basierend auf ein Profil. Mehr Daten können besser personalisierte Werbungen und Inhalte hinzufügen. Werbung und Inhalte können gezeigt und gemessen werden. Einblicke über das Publikum, welche die Werbung gesehen haben und den Inhalt, können abgeleitet werden. So wie Daten können genutzt werden, um es zu verbessern oder die Benutzer Erfahrung zu verbessern das System und die Software.

Wenn du “Ich stimme zu” klickst, erlaubst du uns, die Cookies zu benutzen die Geräte Bezeichnung, den Web oder ähnliche Technologien zu benutzen. Deine Settings, können in deinem Gerät bei deinem Browser geändert werden.

Für den bestimmten Zweck, berechtigten Interessen beruhen darauf, mehr als auf den Inhalt. Du kannst mehr darüber in unseren Privaten und Cookie Politik lesen.